Flag for U.S.A. Weather past 2 weeks in El Paso, Texas, U.S.A.

Now
92 °F

Passing clouds.


Feels Like: 88 °F
Forecast: 70 / 96 °F
Wind: 6 mph from Southwest

Location: El Paso International Airport

Current Time: Aug 29, 2014 at 6:43:25 PM

Latest Report: Aug 29, 2014 at 5:51 PM


Visibility: 10 mi

Pressure: 29.71 "Hg

Humidity: 18%

Dew point: 43 °F

Location of El PasoLocation

Historic Weather in El Paso — Graph

°F

El Paso temperature yesterday

Maximum temperature yesterday: 92 °F (at 3:51 PM)
Minimum temperature yesterday: 70 °F (at 6:51 AM)
Average temperature yesterday: 81 °F

Past Weeks' High & Low Weather Summary

 TemperatureHumidityPressure
High96 °F (Aug 16, 4:51 PM)93% (Aug 27, 6:51 AM)30.12 "Hg (Aug 27, 6:51 AM)
Low65 °F (Aug 22, 4:51 AM)17% (Aug 29, 2:51 PM)29.65 "Hg (Aug 19, 3:51 PM)
Average80 °F48%29.83 "Hg
* Reported Aug 14 4:51 PM — Aug 29 4:51 PM, El Paso, Weather by CustomWeather, © 2014

Note: Actual official high and low records may vary slightly from our data, if they occured in-between our weather recording intervals... More about our weather records

Advertising

El Paso weather history for previous 24 hours

 ConditionsComfort  
Time TempWeatherWind HumidityBarometerVisibility
4:51 PM
Aug 29
94 °FPassing clouds.8 mph17%29.72 "Hg10 mi
3:51 PM93 °FPassing clouds.N/A17%29.74 "Hg10 mi
2:51 PM94 °FPassing clouds.5 mph17%29.75 "Hg10 mi
12:51 PM88 °FPassing clouds.3 mph24%29.80 "Hg10 mi
11:51 AM87 °FPassing clouds.3 mph24%29.81 "Hg10 mi
10:51 AM84 °FPassing clouds.8 mph27%29.82 "Hg10 mi
9:51 AM81 °FScattered clouds.16 mph30%29.82 "Hg10 mi
8:51 AM77 °FBroken clouds.20 mph36%29.80 "Hg10 mi
7:51 AM74 °FBroken clouds.12 mph40%29.80 "Hg10 mi
6:51 AM70 °FPassing clouds.8 mph53%29.78 "Hg10 mi
5:51 AM71 °FPassing clouds.7 mph51%29.77 "Hg10 mi
4:51 AM70 °FClear.3 mph61%29.75 "Hg10 mi
3:51 AM71 °FClear.5 mph59%29.75 "Hg10 mi
2:51 AM72 °FClear.6 mph55%29.75 "Hg10 mi
1:51 AM76 °FClear.No wind47%29.76 "Hg10 mi
12:51 AM74 °FClear.5 mph50%29.78 "Hg10 mi
11:51 PM
Aug 28
80 °FClear.No wind32%29.78 "Hg10 mi
10:51 PM82 °FClear.3 mph29%29.78 "Hg10 mi
9:51 PM82 °FPassing clouds.No wind31%29.78 "Hg10 mi
8:51 PM85 °FPassing clouds.3 mph25%29.76 "Hg10 mi
7:51 PM88 °FPassing clouds.8 mph20%29.75 "Hg10 mi
6:51 PM91 °FPassing clouds.5 mph23%29.74 "Hg10 mi
Weather by CustomWeather, © 2014

See weather overviewHow to use our weather pages